sat.trackr.live / text

‹ back to catalog

HULIANWANG DIGUI-59

NORAD 65165 · 2025-174B

PAYLOAD ACTIVE UNKNOWN

§ Identity

Operator
Country
PRC
Launch date
2025-08-13
Launch site
WSC
Launch vehicle
Mass (kg)
RCS (m²)

External: N2YO · Heavens-Above · Gunter

§ Orbital elements

Epoch: 2026-09-21T21:37:01.067520Z

Period
108.73 min
Inclination
86.4953°
Eccentricity
0.0002108
Mean motion
13.24400278 rev/d
Perigee alt
1,166.4 km
Apogee alt
1,169.5 km
Semi-major
7,546.1 km
B*
1.0648e-4
RAAN
219.2129°
Arg perigee
75.9175°
Mean anomaly
284.2193°
Rev number
5,359

§ Raw data

HULIANWANG DIGUI-591 65165U 25174B   26264.90070680  .00000060  00000+0  10648-3 0  99992 65165  86.4953 219.2129 0002108  75.9175 284.2193 13.24400278 53593

JSON: /api/v1/satellites/65165 · /tle

For live sub-satellite position, see the globe view (requires WebGL).

§ Visibility from observer

Set your observer location to see the next 7 days of passes ≥ 10°. The values pass through the URL so the page stays shareable.

No JS? Fill the form by hand. The geolocation button needs JavaScript.